Aeroporto :
LOGIN :

Iscrizione | Disclaimer

   EN    FR    IT 

 










Sommario :    VFR   VFR Marginale   IFR   IFR Intensivo   IFR Molto Intensivo
Visibilità : 
Base nubi : 
>= 8 km
>= 3000ft
5 / 8 km
1000 / 3000 ft
1500m / 5 km
500 / 1000 ft
800 / 1500m
200 / 500 ft
< 800m
< 200 ft
Simboli :   Temporali  Nebbia  Neve Forte  Precipitazioni Forti  Vento > 20 kt
SIGMETs :   Varie  Temporali  Ghiacco  Turbolenza  Onda orograficha  Ceneri Vulcaniche






- Altitudine del aeroporto : 19 ft
- Codice IATA : BEB


EGPL - Benbecula

ULTIMO METAR :
  • 071220Z AUTO 23012KT 9999 OVC003/// 15/15 Q1011

METARs OBSOLETI :
  • 071150Z AUTO 20022KT 8000 -RA OVC004/// 16/15 Q1011 RERA
  • 071120Z AUTO 19019KT 5000 -RA OVC004/// 16/16 Q1010 RERA
  • 071050Z AUTO 18021KT 2900 RA BKN004/// OVC028/// 16/15 Q1010 RERA
  • 071020Z AUTO 18019KT 2300 RA BKN004/// OVC046/// 16/15 Q1010 RERA

TAF TAF EGPL
Valido dal 07 a 12 ore il 07 a 21 ore UTC


071057Z 0712/0721 18020KT 9999 SCT015
BECMG 0712/0714 30009KT
TEMPO 0712/0715 6000 RA BKN008
PROB30
TEMPO 0712/0714 3000 RADZ BKN004
ATIS : +44 1870 604 818



MetMap, La meteo Aeronautica in un colpo d'occhio ! - Copyright ORBIFLY Dicembre 2007 - Disclaimer

ORBIFLY MET'MAP TEAM :

Programmazione e sviluppo : Alexandra Zaïnal
Concezione : Baudouin d'Aumeries
Aiuto per la programmazione : Marc-Olivier Méhu
Supporto tecnico e logistico : Manuel Goepfert
Aiuto per la traduzione : Arnaldo La Scala

Contatto : metmap@orbifly.com




FONTI E CREDITI :

   NOAA